• In Deutschland
  • Länderverzeichnis
  • Für 7 Tage
  • Wassertemperatur
  • Satellitenkarten
  • Wetterkarte
  • Widgets
  • user-avatar
    Anmelden

    Stündliche Wetter Naumovskiy

    Heute, 18 September, Dienstag

    Zeit Temperatur Niederschläge Wind Luftdruck Luftfeuchtigkeit
    00:00 +14°C° 0 mm 3 m/S 762 mmHg 50%
    01:00 +14°C° 0 mm 3 m/S 762 mmHg 50%
    02:00 +13°C° 0 mm 4 m/S 762 mmHg 51%
    03:00 +13°C° 0 mm 3 m/S 762 mmHg 52%
    04:00 +12°C° 0 mm 3 m/S 762 mmHg 54%
    05:00 +12°C° 0 mm 3 m/S 762 mmHg 55%
    06:00 +11°C° 0 mm 3 m/S 763 mmHg 57%
    07:00 +13°C° 0 mm 4 m/S 763 mmHg 52%
    08:00 +15°C° 0 mm 4 m/S 763 mmHg 47%
    09:00 +17°C° 0 mm 5 m/S 763 mmHg 41%
    10:00 +19°C° 0 mm 5 m/S 763 mmHg 37%
    11:00 +21°C° 0 mm 5 m/S 763 mmHg 33%
    12:00 +22°C° 0 mm 5 m/S 763 mmHg 29%
    13:00 +23°C° 0 mm 5 m/S 763 mmHg 28%
    14:00 +23°C° 0 mm 5 m/S 762 mmHg 28%
    15:00 +25°C° 0 mm 5 m/S 762 mmHg 27%
    16:00 +23°C° 0 mm 4 m/S 762 mmHg 30%
    17:00 +22°C° 0 mm 3 m/S 762 mmHg 33%
    18:00 +21°C° 0 mm 3 m/S 762 mmHg 36%
    19:00 +20°C° 0 mm 2 m/S 762 mmHg 39%
    20:00 +19°C° 0 mm 2 m/S 762 mmHg 42%
    21:00 +18°C° 0 mm 2 m/S 763 mmHg 45%
    22:00 +18°C° 0 mm 3 m/S 763 mmHg 47%
    23:00 +17°C° 0 mm 3 m/S 763 mmHg 50%

    Morgen, 19 September, Mittwoch

    Zeit Temperatur Niederschläge Wind Luftdruck Luftfeuchtigkeit
    00:00 +17°C° 0 mm 3 m/S 763 mmHg 52%
    01:00 +16°C° 0 mm 3 m/S 763 mmHg 54%
    02:00 +16°C° 0 mm 3 m/S 763 mmHg 57%
    03:00 +16°C° 0 mm 3 m/S 763 mmHg 59%
    04:00 +16°C° 0 mm 3 m/S 763 mmHg 60%
    05:00 +14°C° 0 mm 3 m/S 763 mmHg 61%
    06:00 +14°C° 0 mm 3 m/S 763 mmHg 61%
    07:00 +17°C° 0 mm 4 m/S 763 mmHg 57%
    08:00 +19°C° 0 mm 4 m/S 763 mmHg 53%
    09:00 +21°C° 0 mm 5 m/S 763 mmHg 49%
    10:00 +22°C° 0 mm 5 m/S 763 mmHg 45%
    11:00 +25°C° 0 mm 5 m/S 763 mmHg 42%
    12:00 +26°C° 0 mm 5 m/S 763 mmHg 38%
    13:00 +26°C° 0 mm 5 m/S 763 mmHg 36%
    14:00 +27°C° 0 mm 5 m/S 762 mmHg 35%
    15:00 +27°C° 0 mm 5 m/S 762 mmHg 33%
    16:00 +26°C° 0 mm 4 m/S 762 mmHg 35%
    17:00 +25°C° 0 mm 3 m/S 762 mmHg 38%
    18:00 +24°C° 0 mm 2 m/S 762 mmHg 40%
    19:00 +23°C° 0 mm 2 m/S 763 mmHg 43%
    20:00 +21°C° 0 mm 2 m/S 763 mmHg 45%
    21:00 +21°C° 0 mm 1 m/S 763 mmHg 47%
    22:00 +20°C° 0 mm 1 m/S 763 mmHg 49%
    23:00 +20°C° 0 mm 1 m/S 763 mmHg 50%

    übermorgen, 20 September, Donnerstag

    Zeit Temperatur Niederschläge Wind Luftdruck Luftfeuchtigkeit
    00:00 +19°C° 0 mm 1 m/S 763 mmHg 51%
    01:00 +19°C° 0 mm 1 m/S 763 mmHg 52%
    02:00 +18°C° 0 mm 1 m/S 763 mmHg 54%
    03:00 +18°C° 0 mm 1 m/S 763 mmHg 55%
    04:00 +18°C° 0 mm 1 m/S 763 mmHg 56%
    05:00 +16°C° 0 mm 1 m/S 763 mmHg 57%
    06:00 +16°C° 0 mm 1 m/S 763 mmHg 58%
    07:00 +19°C° 0 mm 1 m/S 763 mmHg 52%
    08:00 +21°C° 0 mm 1 m/S 764 mmHg 47%
    09:00 +23°C° 0 mm 1 m/S 764 mmHg 42%
    10:00 +25°C° 0 mm 1 m/S 763 mmHg 39%
    11:00 +26°C° 0 mm 2 m/S 763 mmHg 36%
    12:00 +28°C° 0 mm 2 m/S 763 mmHg 33%
    13:00 +28°C° 0 mm 2 m/S 763 mmHg 31%
    14:00 +29°C° 0 mm 2 m/S 762 mmHg 30%
    15:00 +29°C° 0 mm 2 m/S 762 mmHg 29%
    16:00 +28°C° 0 mm 2 m/S 762 mmHg 31%
    17:00 +27°C° 0 mm 1 m/S 762 mmHg 34%
    18:00 +26°C° 0 mm 1 m/S 761 mmHg 36%
    19:00 +25°C° 0 mm 1 m/S 761 mmHg 38%
    20:00 +24°C° 0 mm 1 m/S 762 mmHg 40%
    21:00 +23°C° 0 mm 1 m/S 762 mmHg 42%
    22:00 +22°C° 0 mm 1 m/S 762 mmHg 43%
    23:00 +22°C° 0 mm 1 m/S 761 mmHg 45%

    21 September, Freitag

    Zeit Temperatur Niederschläge Wind Luftdruck Luftfeuchtigkeit
    00:00 +22°C° 0 mm 1 m/S 761 mmHg 46%
    01:00 +21°C° 0 mm 1 m/S 761 mmHg 47%
    02:00 +21°C° 0 mm 1 m/S 761 mmHg 49%
    03:00 +20°C° 0 mm 1 m/S 761 mmHg 50%
    04:00 +20°C° 0 mm 1 m/S 761 mmHg 52%
    05:00 +19°C° 0 mm 1 m/S 761 mmHg 54%
    06:00 +19°C° 0 mm 1 m/S 761 mmHg 56%
    07:00 +21°C° 0 mm 1 m/S 761 mmHg 52%
    08:00 +23°C° 0 mm 2 m/S 762 mmHg 48%
    09:00 +25°C° 0 mm 2 m/S 762 mmHg 44%
    10:00 +26°C° 0 mm 2 m/S 762 mmHg 41%
    11:00 +28°C° 0 mm 2 m/S 761 mmHg 38%
    12:00 +29°C° 0 mm 3 m/S 761 mmHg 35%
    13:00 +30°C° 0 mm 3 m/S 761 mmHg 34%
    14:00 +30°C° 0 mm 3 m/S 761 mmHg 32%
    15:00 +31°C° 0 mm 3 m/S 760 mmHg 30%
    16:00 +29°C° 0 mm 3 m/S 760 mmHg 34%
    17:00 +28°C° 0 mm 3 m/S 760 mmHg 37%
    18:00 +27°C° 0 mm 3 m/S 760 mmHg 40%
    19:00 +26°C° 0 mm 3 m/S 761 mmHg 43%
    20:00 +24°C° 0 mm 3 m/S 761 mmHg 45%
    21:00 +22°C° 0 mm 3 m/S 761 mmHg 48%
    22:00 +21°C° 0 mm 3 m/S 761 mmHg 49%
    23:00 +21°C° 0 mm 3 m/S 761 mmHg 50%

    22 September, Samstag

    Zeit Temperatur Niederschläge Wind Luftdruck Luftfeuchtigkeit
    00:00 +20°C° 0 mm 3 m/S 761 mmHg 51%
    01:00 +19°C° 0 mm 3 m/S 761 mmHg 53%
    02:00 +19°C° 0 mm 3 m/S 761 mmHg 55%
    03:00 +18°C° 0 mm 3 m/S 761 mmHg 57%
    04:00 +18°C° 0 mm 3 m/S 761 mmHg 59%
    05:00 +18°C° 0 mm 3 m/S 761 mmHg 61%
    06:00 +17°C° 0 mm 3 m/S 762 mmHg 64%
    07:00 +19°C° 0 mm 4 m/S 762 mmHg 58%
    08:00 +21°C° 0 mm 4 m/S 762 mmHg 53%
    09:00 +23°C° 0 mm 5 m/S 762 mmHg 48%
    10:00 +25°C° 0 mm 5 m/S 761 mmHg 44%
    11:00 +27°C° 0 mm 5 m/S 761 mmHg 39%
    12:00 +28°C° 0 mm 4 m/S 761 mmHg 35%
    13:00 +29°C° 0 mm 4 m/S 761 mmHg 33%
    14:00 +29°C° 0 mm 4 m/S 760 mmHg 32%
    15:00 +29°C° 0 mm 5 m/S 760 mmHg 30%
    16:00 +28°C° 0 mm 4 m/S 760 mmHg 33%
    17:00 +27°C° 0 mm 4 m/S 760 mmHg 36%
    18:00 +26°C° 0 mm 3 m/S 760 mmHg 39%
    19:00 +24°C° 0 mm 3 m/S 760 mmHg 42%
    20:00 +22°C° 0 mm 4 m/S 760 mmHg 44%
    21:00 +21°C° 0 mm 4 m/S 760 mmHg 47%
    22:00 +21°C° 0 mm 4 m/S 760 mmHg 49%
    23:00 +20°C° 0 mm 4 m/S 759 mmHg 51%

    23 September, Sonntag

    Zeit Temperatur Niederschläge Wind Luftdruck Luftfeuchtigkeit
    00:00 +20°C° 0 mm 4 m/S 759 mmHg 53%
    01:00 +19°C° 0 mm 4 m/S 759 mmHg 54%
    02:00 +19°C° 0 mm 4 m/S 759 mmHg 55%
    03:00 +19°C° 0 mm 4 m/S 759 mmHg 56%
    04:00 +18°C° 0 mm 4 m/S 759 mmHg 59%
    05:00 +18°C° 0 mm 4 m/S 759 mmHg 62%
    06:00 +17°C° 0 mm 4 m/S 759 mmHg 64%
    07:00 +19°C° 0 mm 5 m/S 759 mmHg 60%
    08:00 +21°C° 0 mm 5 m/S 759 mmHg 55%
    09:00 +22°C° 0 mm 6 m/S 759 mmHg 51%
    10:00 +24°C° 0 mm 6 m/S 758 mmHg 46%
    11:00 +26°C° 0 mm 6 m/S 758 mmHg 41%
    12:00 +27°C° 0 mm 7 m/S 758 mmHg 35%
    13:00 +28°C° 0 mm 6 m/S 757 mmHg 34%
    14:00 +28°C° 0 mm 6 m/S 757 mmHg 32%
    15:00 +29°C° 0 mm 6 m/S 756 mmHg 30%
    16:00 +28°C° 0 mm 5 m/S 756 mmHg 32%
    17:00 +26°C° 0 mm 5 m/S 756 mmHg 34%
    18:00 +25°C° 0 mm 4 m/S 756 mmHg 36%
    19:00 +25°C° 0 mm 5 m/S 756 mmHg 37%
    20:00 +23°C° 0 mm 5 m/S 756 mmHg 37%
    21:00 +22°C° 0 mm 5 m/S 756 mmHg 38%
    22:00 +21°C° 0 mm 5 m/S 756 mmHg 41%
    23:00 +21°C° 0 mm 5 m/S 756 mmHg 44%
    Mehr zeigen